Other Public Products
Issued by NWS Grand Forks, ND

Home | Current Version | Previous Version | Graphics & Text | Print | Product List | Glossary On
Versions: 1 2 3 4 5 6 7 8 9 10 11 12 13 14 15 16 17 18 19 20 21 22 23 24 25 26 27 28 29 30 31 32 33 34 35 36 37 38 39 40 41 42 43 44 45 46 47 48 49 50
000
FPUS83 KFGF 180731
OPUFGF
PRAIRIE TO PINES WEATHER ROUNDUP
NATIONAL WEATHER SERVICE EASTERN NORTH DAKOTA/GRAND FORKS ND
200 AM CDT FRI APR 18 2014

 **SATELLITE DATA USED TO AUGMENT SKY COVER AT AUTOMATED STATIONS**
 *****  WEATHER ACROSS EASTERN NORTH DAKOTA  *****

CITY           SKY/WX    TMP DP  RH WIND       PRES   REMARKS
GRAND FORKS    CLOUDY    31  22  69 E5        30.29F
GRAND FORKS AF CLOUDY    32  20  63 E3        30.30R
GRAND CITY NWS   N/A     32 N/A N/A E3          N/A
BUXTON           N/A     32  28  86 NE6         N/A
DEVILS LAKE    CLOUDY    32  16  51 SE14      30.23S WCI  22
FARGO          CLOUDY    33  22  63 E7        30.28S
WAHPETON ARPT  CLOUDY    34  23  64 SE5       30.28S
$$

 *****  WEATHER ACROSS CENTRAL AND WESTERN NORTH DAKOTA  *****

CITY           SKY/WX    TMP DP  RH WIND       PRES   REMARKS
JAMESTOWN      MOCLDY    32  21  64 E12       30.21S WCI  23
BISMARCK       CLOUDY    35  23  61 SE10      30.13S
MINOT          PTCLDY    32  22  66 E13       30.11S WCI  22
MINOT AFB      PTCLDY    32  23  68 SE13      30.11S WCI  23
GARRISON         N/A     35  25  66 SE12      30.09S
WILLISTON      LGT RAIN  39  28  64 SE10G18   29.98F
DICKINSON      CLOUDY    35  24  64 SE16      29.97F
HETTINGER      CLOUDY    35  24  64 SE14      29.98F
$$

 *****  OTHER OBSERVATIONS NORTHEAST NORTH DAKOTA  *****

CITY           SKY/WX    TMP DP  RH WIND       PRES   REMARKS
WALHALLA       FAIR      27  18  69 E3        30.30S
LANGDON        CLOUDY    30  14  51 SE14      30.24F WCI  20
CAVALIER       FAIR      28  19  69 E3        30.31S
GRAFTON        PTSUNNY   30  21  69 E7        30.30S WCI  23
CANDO          CLOUDY    32  18  55 E13G20    30.23S WCI  22
FORT TOTTEN    NOT AVBL
ROLLA          CLOUDY    30  16  55 SE14      30.21F WCI  20
RUGBY          CLOUDY    32  19  59 SE20G25   30.18S WCI  20
 ***** THE ABOVE OBSERVATIONS ARE NON NWS ARE NOT QUALITY
        CONTROLLED AND MAY MIS-REPORT RAIN FOR SNOW...
$$

 *****  OTHER OBSERVATIONS SOUTHEAST NORTH DAKOTA *****

CITY           SKY/WX    TMP DP  RH WIND       PRES   REMARKS
COOPERSTOWN    CLOUDY    32  21  64 E13       30.24F WCI  22
VALLEY CITY    CLOUDY    32  19  59 SE6       30.25S
OAKES          CLOUDY    34  25  69 E8        30.22S
GWINNER        CLOUDY    36  27  69 E6        30.25F
SHEYENNE NWR     N/A     34  23  63 E3        29.95S
BUFFALO          N/A     32  20  60 E12         N/A  WCI  23
WYNDMERE       NOT AVBL
 ***** THE ABOVE OBSERVATIONS ARE NON NWS ARE NOT QUALITY
       CONTROLLED AND MAY MIS-REPORT RAIN FOR SNOW...
$$

  *****  WEATHER ACROSS NORTHERN MINNESOTA  *****

CITY           SKY/WX    TMP DP  RH WIND       PRES   REMARKS
FLAG ISLAND    CLEAR     23  12  63 CALM      30.31S
WARROAD        CLEAR     23  18  80 CALM      30.32S
ROSEAU         CLEAR     25  18  74 CALM      30.31S
HALLOCK        CLOUDY    28  18  64 E8        30.30S WCI  20
THF RVR FALLS  MOCLDY    30  12  47 E6        30.30S WCI  24
HALSTAD          N/A     29  21  72 E7          N/A  WCI  22
FOSSTON        MOCLDY    25  12  58 CALM      30.29S
BAUDETTE       CLEAR     23  14  68 CALM      30.32R
WASKISH        CLEAR     19  16  86 CALM      30.31S
CROOKSTON      PTCLDY    30  21  69 E6        30.31S WCI  24
$$
  *****  WEATHER ACROSS CENTRAL AND WEST MINNESOTA  *****

CITY           SKY/WX    TMP DP  RH WIND       PRES   REMARKS
BEMIDJI        PTCLDY    24  13  64 E3        30.28F
PARK RAPIDS    PTCLDY    29  11  47 E3        30.27S
WADENA         MOCLDY    27  18  69 CALM      30.27S
DETROIT LAKES  PTCLDY    32  21  64 CALM      30.28S
MOORHEAD       MOCLDY    34  27  75 E5        30.29S
FERGUS FALLS   MOCLDY    36  16  44 CALM      30.26F
ELBOW LAKE     CLOUDY    32  25  74 E3        30.28S
MORRIS MN      MOCLDY    30  25  80 SE5       30.27F
STAPLES        CLOUDY    27  18  69 CALM      30.27F
WHEATON        CLOUDY    36  28  75 SE5       30.30S
$$
  *****  WEATHER ELSEWHERE ACROSS MINNESOTA  *****

CITY           SKY/WX    TMP DP  RH WIND       PRES   REMARKS
DULUTH         MOCLDY    23  18  81 SW3       30.30R
INTRNTL FALLS  CLEAR     21  17  84 CALM      30.31R
ELY            CLEAR     18  16  93 CALM      30.30R
CLOQUET        MOCLDY    21  19  93 CALM      30.30S
BRAINERD       PTCLDY    34  21  59 SE7       30.29S
HIBBING        PTCLDY    22  18  85 CALM      30.30R
ALEXANDRIA     CLOUDY    29  23  78 CALM      30.29S
SAINT CLOUD    PTCLDY    24  20  84 CALM      30.31R
MINNEAPOLIS    CLEAR     30  26  85 CALM      30.33S
$$

  *****  WEATHER ACROSS SOUTH DAKOTA  *****

CITY           SKY/WX    TMP DP  RH WIND       PRES   REMARKS
SIOUX FALLS    MOCLDY    35  27  72 E12       30.25S
BROOKINGS      NOT AVBL
WATERTOWN      CLOUDY    33  17  51 SE8       30.22F
HURON          PTCLDY    33  23  66 SE14      30.19F WCI  23
SISSETON         N/A     32  23  69 SE5       30.26S
ABERDEEN       CLOUDY    35  21  56 SE8       30.22R
MITCHELL       PTCLDY    36  26  67 SE16      30.21S
PIERRE         CLOUDY    38  26  62 SE17      30.07F
MOBRIDGE       PTCLDY    36  23  59 SE18      30.08F
RAPID CITY     MOCLDY    38  33  82 SE8       29.92F
$$

  *****  SOME WEATHER IN NEARBY STATES *****

CITY           SKY/WX    TMP DP  RH WIND       PRES   REMARKS
GLASGOW MT     LGT RAIN  42  35  76 E18       29.79F
GREAT FALLS MT CLOUDY    45  42  89 E6        29.66F
CHEYENNE WY    PTCLDY    40  31  70 VRB3      30.02R
SCOTTSBLUFF NE CLEAR     50  37  61 S12G20    29.94F
OMAHA NE       PTCLDY    36  30  79 CALM      30.26F
DES MOINES IA  CLEAR     39  30  70 E7        30.30S
DAVENPORT IA   CLEAR     34  31  88 N9        30.31S
CHICAGO IL     CLOUDY    46  36  68 SE3       30.25F
EAU CLAIRE WI  CLEAR     24  21  88 CALM      30.33R
LA CROSSE WI   PTCLDY    34  26  72 N5        30.32F
$$

  *****  SOME NATIONAL WEATHER *****

CITY           SKY/WX    TMP DP  RH WIND       PRES   REMARKS
LA GUARDIA NY  MOCLDY    37  27  65 E7        30.58F
RALEIGH NC     MOCLDY    41  35  79 NE6       30.44F
ATLANTA GA     CLOUDY    56  36  47 E13       30.29F
NEW ORLEANS LA CLOUDY    64  59  83 E14       30.08F
OKLAHOMA CITY  MOCLDY    50  39  66 NE6       30.25S
ALBUQUERQUE NM PTCLDY    57  25  29 N9        30.16R
SALT LAKE CITY CLOUDY    63  29  27 S22       29.81S
LOS ANGELES CA CLOUDY    62  53  72 E10       29.91S
BOISE ID       CLOUDY    50  45  83 NW12      29.86R
SEATTLE WA     CLOUDY    46  40  79 SW13      29.91R
$$

*** WEATHER ACROSS MANITOBA...SASKATCHEWAN AND ONTARIO ***
                ***ONTARIO***

CITY           SKY/WX    TMP DP  RH WIND       PRES   REMARKS
GERALDTON      LGT SNOW  28  27  93 N3        30.24S
THUNDER BAY    CLOUDY    27  25  93 W6        30.30R WCI  20
SIOUX LOOKOUT  CLEAR     14  14 100 CALM      30.31R
TORONTO        MOCLDY    43  30  61 SE3       30.29F
BIG TROUT LK   CLEAR      9   0  66 CALM      30.30S
PICKLE LAKE    NOT AVBL
DRYDEN         CLEAR     23  19  86 S6        30.30S WCI  16
KENORA         CLEAR     25   5  42 N6        30.31R WCI  18
$$
                *** MANITOBA***

CITY           SKY/WX    TMP DP  RH WIND       PRES   REMARKS
BRANDON        CLOUDY    27  19  74 E10       30.25F WCI  17
DAUPHIN        CLEAR     27  14  59 E8        30.25F WCI  18
ISLAND LAKE    CLEAR     16  12  86 CALM      30.34R
PILOT MOUND      N/A     28  18  64 E13         N/A  WCI  18
THE PAS        CLEAR     18   7  62 SE9       30.27F WCI   6
THOMPSON       CLEAR     12   5  73 CALM      30.31R
WINNIPEG       CLEAR     21  12  68 E5        30.33F WCI  15
LYNN LAKE      CLEAR     14   0  52 E3        30.25S
CHURCHILL      PTCLDY    12  10  92 NE5       30.36R WCI   4
GILLAM         PTCLDY    12   5  73 SW3       30.31R
$$
                ***SASKATCHEWAN***

CITY           SKY/WX    TMP DP  RH WIND       PRES   REMARKS
ESTEVAN        PTCLDY    30  23  74 E15       30.04  WCI  19
KINDERSLEY     LGT RAIN  37  36  93 SE20      29.73F
LLOYDMINSTER   LGT SNOW  30  30 100 E14       29.79F WCI  20
PRINCE ALBERT  CLOUDY    28  19  69 E15G22    30.06S WCI  17
REGINA         CLOUDY    32  21  64 SE24      29.98F WCI  19



USA.gov is the U.S. government's official web portal to all federal, state and local government web resources and services.